Location: Newark
(44.6833°N, 7.1833°E)
Time: 14:08:01
(UTC+00:00)

Envisat - Visible Passes

Search period start: 28 January 2020 00:00
Search period end: 07 February 2020 00:00
Orbit: 764 x 766 km, 98.1° (Epoch: 28 January)

Date Brightness Start Highest point End Pass type
(mag) Time Alt. Az. Time Alt. Az. Time Alt. Az.
28 Jan 3.7 06:01:59 10° NNE 06:07:02 61° E 06:12:02 10° S visible
28 Jan 3.1 17:18:10 10° SSE 17:23:15 88° WSW 17:28:22 10° NNW visible
28 Jan 6.4 19:01:43 10° WSW 19:03:00 11° W 19:04:18 10° WNW visible
29 Jan 5.2 05:25:41 10° NE 05:30:04 28° E 05:34:24 10° SSE visible
29 Jan 5.4 18:21:42 10° SSW 18:25:47 24° W 18:29:53 10° NW visible
30 Jan 6.2 04:50:31 10° ENE 04:52:54 13° E 04:55:15 10° ESE visible
30 Jan 4.0 17:43:51 10° S 17:48:46 51° W 17:53:45 10° NNW visible
31 Jan 4.2 05:50:46 10° NNE 05:55:42 48° E 06:00:36 10° S visible
31 Jan 3.0 17:06:54 10° SSE 17:11:58 75° ENE 17:17:03 10° N visible
31 Jan 6.2 18:48:55 10° WSW 18:51:33 14° W 18:54:12 10° WNW visible
01 Feb 5.6 05:14:41 10° NE 05:18:41 23° E 05:22:38 10° SE visible
01 Feb 5.1 18:09:58 10° SSW 18:14:24 30° W 18:18:52 10° NW visible
02 Feb 6.6 04:41:04 10° E 04:41:26 10° E 04:41:48 10° E visible
02 Feb 3.2 06:16:07 10° NNE 06:21:14 83° ESE 06:26:19 10° SSW visible
02 Feb 3.5 17:32:25 10° S 17:37:27 65° WSW 17:42:31 10° NNW visible
03 Feb 4.6 05:39:36 10° NNE 05:44:22 38° E 05:49:04 10° SSE visible
03 Feb 5.9 18:36:44 10° SW 18:40:08 18° W 18:43:32 10° NW visible
04 Feb 6.0 05:03:48 10° NE 05:07:16 18° E 05:10:43 10° SE visible
04 Feb 4.6 17:58:21 10° SSW 18:03:02 37° W 18:07:45 10° NNW visible
05 Feb 3.5 06:04:51 10° NNE 06:09:56 66° ESE 06:14:59 10° S visible
05 Feb 3.2 17:21:04 10° S 17:26:09 81° WSW 17:31:16 10° NNW visible
06 Feb 5.1 05:28:30 10° NNE 05:33:00 31° E 05:37:27 10° SSE visible
06 Feb 5.6 18:24:48 10° SW 18:28:43 22° W 18:32:39 10° NW visible
